RH
37 33 30 29 27 26 27 28 30 31 32 32 32 31 30 30 26 21 18 17 17 16 16 18 20 21 23 23 24 24 24 26 28 30 30 30 32 32 33 34 35 35
34 31 27 28 29 28 26 26 29 31 31 32 34 34 33 32 30 25 20 18 18 18 19 20 21 23 24 25 26 26 27 28 30 31 32 31 33 35 38 40 42 42
33 29 25 27 29 28 26 24 26 29 31 32 35 36 35 34 33 28 23 20 21 24 25 24 24 24 25 26 28 28 28 30 32 34 34 33 33 36 38 40 43 45
34 28 25 28 28 28 29 27 26 28 30 32 34 37 35 33 33 30 26 24 26 29 29 28 27 26 26 27 27 28 28 30 32 34 35 34 34 34 36 39 42 44
40 31 27 29 30 30 34 35 32 30 31 32 34 37 37 36 37 34 30 29 29 29 28 27 29 30 28 27 26 27 27 27 30 32 33 35 35 35 37 39 41 41
48 38 30 31 31 33 39 41 38 35 33 32 33 37 40 41 41 39 35 33 31 29 27 28 30 30 29 29 29 29 28 27 28 30 33 36 37 37 38 40 42 43
57 46 34 33 33 34 40 44 43 40 37 34 34 37 42 44 44 42 38 36 33 30 29 29 29 29 29 31 32 32 32 31 30 32 35 38 39 38 39 41 43 46
58 49 39 39 37 37 44 50 50 47 43 39 36 38 44 46 45 41 38 36 33 32 30 29 29 30 31 32 33 34 34 34 34 35 36 37 37 35 36 38 40 42
54 49 44 43 41 43 53 59 57 55 50 43 39 40 45 47 43 38 37 37 34 32 30 29 29 29 31 33 34 35 35 34 35 35 36 36 35 36 37 37 36 37
53 48 45 46 45 48 57 61 61 59 52 44 42 44 46 46 42 38 38 38 34 32 30 28 28 29 31 34 34 34 34 34 34 35 36 37 37 38 38 37 35 34
54 48 45 47 48 49 54 58 61 60 51 45 46 46 46 44 41 39 38 37 34 31 29 28 29 32 33 33 33 33 33 32 34 37 38 38 36 36 36 36 36 35
53 48 43 44 48 52 54 57 60 59 52 47 48 47 44 42 41 39 39 37 34 30 28 28 30 33 34 34 34 33 32 32 35 37 38 37 36 36 36 37 37 38
51 48 42 43 49 54 55 55 58 59 53 48 48 46 44 42 40 40 39 37 33 29 28 29 32 35 37 38 37 33 32 34 36 38 38 38 40 40 40 41 42 43
51 47 43 44 49 52 53 52 54 56 52 49 49 46 41 40 40 40 39 36 31 28 29 32 35 39 41 42 40 36 34 36 37 39 40 42 44 46 47 48 49 49
54 52 46 45 49 50 51 51 51 52 51 49 48 44 40 40 40 39 39 34 30 30 33 37 40 41 42 44 43 41 40 40 39 39 41 43 45 48 51 52 52 52
58 59 51 46 49 51 51 53 53 52 50 48 47 43 42 43 42 40 38 33 30 32 37 41 43 43 45 49 51 49 45 42 40 38 39 41 43 47 50 52 53 54
58 60 53 50 53 54 53 54 55 53 47 44 44 44 44 45 43 40 37 33 32 36 41 45 46 46 50 54 54 52 47 43 41 38 37 39 42 45 48 50 52 53
63 65 62 62 63 60 58 59 60 56 48 43 45 46 45 45 42 40 37 36 38 42 45 49 50 51 55 57 54 50 46 44 43 40 37 38 42 44 46 48 49 51
73 73 72 73 74 70 65 64 61 55 49 47 49 47 45 43 42 41 41 42 45 47 49 53 54 55 58 59 58 52 46 43 44 41 37 37 39 42 45 46 48 48
69 71 70 71 73 73 70 66 61 55 52 52 52 49 45 44 44 46 47 48 49 52 54 56 57 58 59 61 61 56 47 44 43 40 37 35 36 39 42 44 45 45
59 67 72 72 73 75 74 70 65 61 59 58 57 53 49 48 50 53 53 52 54 56 58 59 61 63 63 65 65 59 50 47 44 39 36 36 36 37 39 42 42 40
66 74 77 78 77 77 76 75 72 67 63 61 59 57 54 53 55 57 56 56 57 59 62 66 69 70 69 68 68 59 50 47 43 38 36 37 36 35 36 38 37 34
78 82 82 83 81 76 75 78 75 69 66 64 63 62 59 57 58 59 59 59 61 65 72 77 78 75 70 66 63 54 45 42 40 38 38 37 35 35 36 36 35 34
83 83 83 85 82 76 77 78 73 69 70 71 70 67 62 59 61 61 60 59 61 67 75 79 79 75 67 59 55 48 42 40 40 40 39 37 36 37 37 36 38 40
84 82 84 87 81 75 77 76 70 72 77 79 76 71 64 63 64 63 60 61 65 72 77 78 76 71 61 52 48 44 40 40 40 39 38 38 38 38 38 40 42 44
84 81 84 86 79 73 74 72 72 78 83 83 80 74 69 68 68 67 68 72 77 80 80 75 68 60 51 46 44 42 39 39 39 38 38 39 38 39 41 43 45 45